This is the latest recevied weather packets stored in our database for station/object K4IR. If no packets are shown the sender has not sent any weather packets the latest 10 day(s).
| Time | Temp. | Humidity | Pressure | Rain* | Wind** | Luminosity | Snow |
|---|---|---|---|---|---|---|---|
| 1788126878 | 26.67° C | 96% | 1019.9 hPa | 0 mm | - | 62 W/m² | - |
| 1788126273 | 26.67° C | 96% | 1019.9 hPa | 0 mm | - | 59 W/m² | - |
| 1788125677 | 26.67° C | 95% | 1020 hPa | 0.51 mm | - | 68 W/m² | - |
| 1788125066 | 27.22° C | 94% | 1020.1 hPa | 6.1 mm | - | 75 W/m² | - |
| 1788124466 | 27.22° C | 93% | 1020 hPa | 0 mm | - | 73 W/m² | - |
| 1788123861 | 27.78° C | 94% | 1020 hPa | 0 mm | - | 103 W/m² | - |
| 1788123263 | 27.78° C | 93% | 1020.3 hPa | 0 mm | - | 103 W/m² | - |
| 1788122652 | 27.22° C | 93% | 1020.2 hPa | 0 mm | - | 109 W/m² | - |
| 1788122050 | 27.22° C | 93% | 1020.1 hPa | 0 mm | - | 124 W/m² | - |
| 1788121451 | 26.67° C | 93% | 1020.2 hPa | 0 mm | - | 143 W/m² | - |
| 1788120846 | 27.22° C | 94% | 1019.9 hPa | 0 mm | - | 150 W/m² | - |
| 1788120241 | 26.67° C | 94% | 1020.1 hPa | 0 mm | - | 149 W/m² | - |
| 1788119635 | 26.67° C | 94% | 1020.5 hPa | 0 mm | - | 152 W/m² | - |
| 1788119034 | 26.67° C | 94% | 1020.4 hPa | 0 mm | - | 155 W/m² | - |
| 1788118428 | 26.11° C | 94% | 1020.9 hPa | 0 mm | - | 157 W/m² | - |
| 1788117824 | 26.11° C | 95% | 1020.7 hPa | 0 mm | - | 168 W/m² | - |
| 1788117220 | 25.56° C | 96% | 1020.7 hPa | 0 mm | - | 214 W/m² | - |
| 1788116616 | 25.56° C | 97% | 1020.9 hPa | 0 mm | - | 296 W/m² | - |
| 1788116016 | 25° C | 97% | 1021 hPa | 0 mm | - | 253 W/m² | - |
| 1788115410 | 25° C | 97% | 1020.6 hPa | 0 mm | - | 147 W/m² | - |
| 1788114811 | 25° C | 97% | 1020.7 hPa | 0 mm | - | 155 W/m² | - |
| 1788114208 | 24.44° C | 96% | 1021.2 hPa | 0 mm | - | 123 W/m² | - |
| 1788113605 | 24.44° C | 96% | 1020.9 hPa | 1.27 mm | - | 99 W/m² | - |
| 1788113005 | 24.44° C | 94% | 1021.2 hPa | 15.49 mm | - | 77 W/m² | - |
| 1788112405 | 25° C | 93% | 1020.9 hPa | 3.05 mm | - | 68 W/m² | - |
* Rain latest hour (hover to see other rain measurements)
** Current wind speed in m/s (hover to see current wind gust speed)